Vorticity
-0 -3 2 6 7 2 5 4 6 8 8 5 6 8 7 7 7 6 6 7 8 7 6 5 4 5 4 3 4 6 8 5 4 4 4 4 3 5 4 2 5 5 5
13 3 5 11 1 1 5 5 7 6 8 5 6 7 7 7 7 7 8 7 7 7 7 5 5 5 4 4 4 4 4 4 4 5 6 4 4 4 6 5 4 4 5
15 9 7 6 -2 5 -0 2 10 6 6 6 7 5 7 7 7 7 7 8 10 7 5 6 5 5 5 4 3 3 4 5 7 6 6 5 5 5 5 5 6 4 5
3 7 14 -3 5 -2 2 4 5 6 5 5 6 6 5 8 8 8 8 8 9 9 6 5 5 5 5 5 4 4 3 5 7 7 6 7 6 6 5 3 5 5 5
5 9 3 5 4 3 2 3 6 6 5 4 4 7 5 6 6 6 7 8 8 8 9 7 6 6 5 5 4 4 4 5 5 7 7 8 7 7 6 3 5 5 5
7 9 -1 0 1 -1 4 7 5 6 5 4 4 7 7 5 7 6 7 8 7 7 7 8 8 8 7 7 5 4 4 5 5 7 7 7 8 10 7 4 5 5 6
6 12 7 -1 -2 -3 3 3 5 5 5 4 3 4 8 6 6 6 7 8 6 5 7 8 8 8 6 7 7 6 5 5 6 6 7 8 9 5 4 3 -1 7 6
6 8 0 -7 1 0 4 3 3 6 5 3 2 2 6 7 6 6 5 8 7 9 8 7 8 6 6 6 5 6 6 6 7 8 7 8 10 5 9 6 6 9 7
1 -1 1 2 5 7 5 5 5 2 4 3 -1 7 4 8 7 6 5 8 8 8 7 8 7 6 6 5 6 7 6 9 7 8 7 7 7 8 9 6 7 6 6
3 4 2 0 6 0 4 2 -2 3 4 4 4 4 4 6 8 7 5 7 6 5 6 6 7 7 6 6 6 6 5 5 4 2 1 7 7 8 9 7 6 6 9
4 2 3 2 4 4 -1 1 1 6 5 5 3 4 2 7 7 7 7 7 8 7 5 6 6 7 7 5 6 6 5 5 3 6 5 6 7 5 10 7 6 8 7
4 4 4 5 7 5 5 6 4 8 5 5 5 2 1 4 6 6 9 7 8 7 6 5 6 6 8 8 7 5 7 6 7 7 11 8 7 7 10 7 7 7 6
7 6 5 5 7 6 7 6 5 6 6 5 1 1 2 2 4 5 7 7 8 8 7 5 5 5 6 7 8 7 6 2 5 5 4 3 4 6 9 6 7 7 6
6 6 8 -3 7 4 7 5 4 7 7 6 2 3 2 0 1 5 6 7 8 7 7 6 7 6 4 6 6 5 3 6 6 5 5 9 8 10 8 5 7 14 18
-0 5 9 6 2 7 12 16 6 8 5 6 6 2 0 1 1 1 6 7 7 7 7 7 7 8 6 6 6 7 7 6 6 7 4 2 7 2 7 36 34 6 27
20 3 1 3 7 7 3 5 -5 14 -4 8 5 7 0 1 -0 2 6 6 6 7 7 7 6 8 8 6 8 7 8 6 9 6 3 5 7 8 11 -83 21 11 -24
16 17 7 4 -1 5 3 3 18 7 0 7 4 6 8 4 5 10 6 6 6 7 6 7 6 7 8 8 9 7 4 9 8 4 13 9 7 5 -0 36 -67 29 -0
17 11 4 18 13 1 0 5 4 12 11 11 5 6 6 10 13 11 7 6 5 6 7 7 6 6 8 8 9 10 9 7 7 1 6 14 6 1 -0 13 27 10 -1
14 21 15 15 16 9 18 5 -1 3 9 -27 10 7 1 14 -5 17 8 6 5 5 7 8 7 7 8 9 11 13 7 11 12 9 4 4 11 -1 -4 4 4 18 18
13 7 16 23 15 17 13 16 18 4 10 19 16 23 10 1 19 17 10 6 5 5 6 8 6 9 9 13 10 5 11 4 10 1 1 10 10 18 -1 21 -5 -3 18
9 15 14 8 28 21 19 18 10 23 2 -7 1 3 9 13 2 22 11 5 6 4 5 8 8 8 17 4 10 15 -6 1 25 10 6 13 11 -35 26 5 13 10 4
20 25 20 13 10 11 35 11 24 20 24 7 9 -3 13 1 2 -27 -1 9 6 5 5 7 9 10 14 6 -10 -4 18 4 15 22 -1 36 38 38 8 13 10 15 7
8 8 13 22 22 11 4 22 12 26 21 31 18 12 8 -3 8 20 -1 6 8 5 5 7 9 10 14 18 17 5 21 6 -3 11 37 3 15 19 -10 -1 14 10 21
-1 5 9 6 22 25 15 6 19 14 27 19 15 7 25 -13 -8 3 10 0 26 5 5 6 9 14 -1 12 -4 -17 23 8 4 40 9 2 -46 19 -15 23 -1 -2 -8
6 5 7 8 8 14 25 27 6 10 15 17 24 33 -23 5 13 13 1 -5 23 5 7 5 10 21 18 3 -2 20 13 31 20 3 -41 23 17 32 30 7 -15 13 -14
14 14 14 10 7 9 7 19 24 25 8 16 8 38 25 12 -14 4 4 -4 26 11 7 5 13 19 20 -4 1 12 10 -0 21 42 42 6 27 1 -4 19 -31 4 -0
Height
3166 3166 3167 3166 3166 3165 3165 3164 3163 3163 3162 3162 3163 3163 3164 3164 3166 3167 3168 3170 3172 3173 3174 3174 3175 3175 3176 3177 3178 3179 3180 3180 3181 3182 3183 3185 3186 3187 3188 3189 3190 3190 3192
3166 3166 3167 3167 3167 3166 3165 3164 3163 3162 3162 3162 3162 3163 3163 3163 3164 3165 3166 3168 3170 3171 3173 3173 3174 3175 3176 3177 3177 3178 3180 3180 3181 3182 3184 3185 3186 3187 3189 3190 3191 3192 3193
3159 3166 3167 3168 3167 3167 3166 3165 3163 3162 3162 3162 3162 3162 3162 3163 3163 3164 3165 3166 3167 3169 3170 3171 3172 3174 3175 3176 3177 3177 3179 3180 3181 3183 3183 3184 3186 3187 3188 3189 3191 3192 3193
3154 3159 3164 3167 3167 3166 3164 3164 3163 3162 3161 3161 3161 3161 3161 3161 3162 3163 3163 3164 3166 3167 3168 3169 3171 3173 3174 3176 3176 3177 3178 3179 3181 3182 3183 3184 3185 3186 3188 3189 3190 3192 3193
3150 3153 3157 3160 3162 3163 3163 3163 3162 3162 3161 3160 3160 3160 3160 3161 3161 3161 3162 3162 3163 3165 3166 3168 3169 3172 3172 3173 3174 3176 3177 3178 3179 3181 3182 3183 3184 3186 3187 3189 3191 3192 3193
3151 3151 3150 3150 3152 3156 3157 3159 3160 3160 3160 3160 3159 3159 3159 3159 3159 3160 3160 3160 3161 3163 3164 3165 3167 3169 3170 3172 3173 3174 3175 3177 3178 3179 3181 3182 3184 3185 3187 3189 3190 3191 3193
3147 3148 3149 3148 3149 3150 3151 3154 3155 3157 3158 3158 3158 3157 3157 3157 3157 3158 3158 3158 3159 3160 3161 3163 3165 3167 3168 3169 3171 3173 3174 3175 3176 3177 3179 3181 3182 3184 3185 3187 3190 3191 3192
3145 3145 3145 3145 3146 3147 3147 3147 3151 3153 3155 3156 3156 3156 3156 3155 3155 3155 3155 3156 3157 3158 3159 3160 3163 3164 3165 3167 3168 3170 3172 3173 3174 3176 3177 3179 3181 3181 3183 3185 3187 3188 3191
3143 3144 3144 3143 3144 3144 3145 3145 3145 3148 3151 3152 3153 3154 3153 3153 3153 3153 3153 3153 3154 3155 3156 3157 3159 3161 3162 3164 3165 3167 3169 3170 3172 3174 3175 3177 3179 3180 3181 3183 3184 3187 3189
3139 3139 3140 3141 3141 3142 3142 3142 3143 3143 3145 3148 3149 3150 3150 3150 3150 3150 3150 3150 3151 3152 3152 3154 3156 3158 3159 3161 3163 3165 3166 3168 3170 3172 3174 3175 3176 3177 3178 3179 3182 3184 3187
3133 3134 3135 3136 3136 3137 3138 3139 3139 3139 3139 3141 3143 3145 3145 3146 3146 3147 3147 3148 3148 3149 3149 3150 3152 3154 3157 3158 3160 3162 3163 3164 3167 3169 3170 3171 3173 3174 3176 3178 3180 3182 3184
3127 3128 3129 3130 3131 3131 3132 3134 3135 3135 3135 3136 3138 3139 3141 3142 3142 3142 3143 3143 3144 3145 3146 3146 3148 3150 3153 3154 3156 3159 3159 3161 3163 3165 3167 3169 3170 3171 3173 3174 3176 3178 3180
3123 3121 3121 3123 3125 3125 3126 3127 3128 3130 3130 3131 3131 3133 3135 3136 3137 3137 3138 3139 3140 3141 3142 3142 3144 3147 3149 3151 3153 3154 3155 3157 3159 3161 3163 3165 3166 3168 3168 3169 3171 3173 3176
3116 3116 3115 3115 3116 3118 3119 3120 3122 3123 3124 3125 3125 3127 3129 3130 3132 3132 3133 3134 3135 3136 3137 3138 3140 3142 3145 3146 3148 3150 3151 3154 3155 3157 3159 3161 3163 3164 3167 3169 3169 3166 3168
3107 3107 3107 3107 3108 3110 3111 3113 3114 3116 3117 3118 3120 3121 3121 3124 3125 3127 3128 3129 3130 3131 3132 3133 3135 3137 3139 3141 3144 3145 3147 3149 3151 3153 3155 3157 3159 3159 3164 3164 3115 3164 3166
3097 3097 3098 3098 3099 3100 3103 3105 3106 3107 3110 3111 3113 3115 3116 3117 3119 3120 3121 3123 3124 3125 3126 3127 3129 3131 3134 3135 3138 3140 3141 3145 3147 3148 3150 3153 3156 3155 3159 3153 3135 3154 3165
3085 3086 3086 3088 3089 3090 3091 3094 3096 3098 3101 3102 3105 3107 3108 3109 3111 3113 3114 3116 3118 3119 3120 3122 3123 3125 3127 3129 3131 3134 3136 3139 3141 3143 3145 3147 3151 3151 3155 3158 3153 3158 3163
3076 3075 3075 3074 3076 3078 3080 3082 3085 3088 3091 3093 3096 3099 3100 3101 3103 3104 3107 3110 3111 3112 3114 3115 3117 3118 3121 3123 3126 3128 3131 3134 3136 3138 3140 3141 3145 3148 3153 3157 3159 3161 3162
3064 3065 3063 3062 3062 3064 3067 3070 3074 3077 3080 3081 3084 3088 3090 3091 3094 3095 3098 3101 3103 3105 3107 3109 3110 3113 3115 3117 3120 3122 3125 3128 3130 3133 3135 3136 3141 3143 3147 3152 3155 3158 3161
3055 3052 3051 3052 3049 3050 3051 3055 3060 3064 3068 3070 3074 3075 3079 3083 3086 3086 3090 3092 3094 3097 3099 3101 3104 3107 3109 3111 3113 3116 3119 3122 3125 3128 3130 3130 3133 3137 3141 3145 3150 3155 3160
3047 3045 3042 3040 3039 3038 3038 3038 3043 3049 3055 3060 3059 3064 3069 3073 3076 3077 3081 3083 3085 3088 3092 3094 3096 3099 3101 3105 3108 3109 3113 3115 3118 3121 3124 3126 3125 3131 3137 3142 3147 3151 3157
3041 3038 3035 3032 3030 3027 3028 3027 3027 3031 3038 3044 3047 3054 3057 3060 3066 3069 3071 3074 3077 3080 3083 3086 3089 3092 3094 3099 3101 3105 3107 3111 3111 3115 3119 3121 3122 3126 3133 3136 3142 3149 3153
3035 3031 3028 3024 3021 3019 3016 3017 3016 3016 3020 3026 3031 3039 3044 3049 3054 3059 3060 3065 3068 3072 3075 3078 3081 3084 3089 3092 3096 3099 3100 3103 3108 3109 3111 3111 3119 3122 3129 3134 3138 3144 3148
3030 3026 3021 3017 3013 3010 3007 3006 3004 3005 3008 3012 3015 3022 3029 3034 3042 3048 3051 3055 3059 3063 3067 3071 3074 3077 3081 3085 3089 3093 3096 3101 3103 3104 3105 3110 3113 3119 3124 3128 3134 3138 3144
3024 3020 3015 3011 3007 3003 2999 2997 2995 2995 2997 3000 3001 3006 3012 3020 3028 3034 3040 3043 3048 3054 3058 3061 3064 3068 3073 3078 3083 3087 3088 3093 3098 3102 3104 3106 3112 3115 3119 3124 3127 3133 3137
3018 3013 3009 3005 3001 2997 2993 2988 2986 2984 2985 2987 2988 2990 2997 3004 3014 3022 3027 3031 3035 3043 3048 3053 3056 3060 3065 3070 3075 3079 3081 3087 3088 3091 3098 3102 3106 3109 3115 3119 3123 3129 3133